TimeCST,TemperatureF,Dew PointF,Humidity,Sea Level PressureIn,VisibilityMPH,Wind Direction,Wind SpeedMPH,Gust SpeedMPH,PrecipitationIn,Events,Conditions,WindDirDegrees,DateUTC
12:10 AM,24.8,24.8,100,29.98,3.0,ENE,3.5,-,N/A,,Clear,70,2012-11-18 06:10:00
12:20 AM,24.8,23.0,93,29.98,1.5,Calm,Calm,-,N/A,,Clear,0,2012-11-18 06:20:00
12:36 AM,24.8,23.0,93,29.98,2.5,Calm,Calm,-,N/A,,Clear,0,2012-11-18 06:36:00
12:44 AM,24.8,23.0,93,29.98,4.0,East,3.5,-,N/A,,Clear,90,2012-11-18 06:44:00
12:52 AM,25.0,23.0,92,30.04,4.0,Calm,Calm,-,N/A,,Clear,0,2012-11-18 06:52:00
1:34 AM,23.0,21.2,93,29.97,2.5,ENE,3.5,-,N/A,,Partly Cloudy,60,2012-11-18 07:34:00
1:43 AM,23.0,21.2,93,29.97,3.0,Calm,Calm,-,N/A,,Mostly Cloudy,0,2012-11-18 07:43:00
1:49 AM,23.0,21.2,93,29.97,1.8,Calm,Calm,-,N/A,,Mostly Cloudy,0,2012-11-18 07:49:00
1:52 AM,23.0,21.9,96,30.03,1.5,NE,4.6,-,N/A,,Mostly Cloudy,50,2012-11-18 07:52:00
1:59 AM,24.8,23.0,93,29.97,0.8,ENE,5.8,-,N/A,,Unknown,60,2012-11-18 07:59:00
2:07 AM,24.8,24.8,100,29.97,0.5,ENE,3.5,-,N/A,,Unknown,70,2012-11-18 08:07:00
2:16 AM,24.8,21.2,86,29.97,0.2,Calm,Calm,-,N/A,,Unknown,0,2012-11-18 08:16:00
2:37 AM,24.8,23.0,93,29.97,0.2,Calm,Calm,-,N/A,,Unknown,0,2012-11-18 08:37:00
2:45 AM,24.8,21.2,86,29.97,0.2,East,3.5,-,N/A,,Unknown,100,2012-11-18 08:45:00
2:52 AM,23.0,21.0,92,30.03,0.2,East,3.5,-,N/A,,Unknown,80,2012-11-18 08:52:00
3:09 AM,24.8,23.0,93,29.96,0.2,Calm,Calm,-,N/A,,Unknown,0,2012-11-18 09:09:00
3:25 AM,23.0,21.2,93,29.96,0.2,East,4.6,-,N/A,,Unknown,80,2012-11-18 09:25:00
3:50 AM,21.2,21.2,100,29.95,0.5,ENE,4.6,-,N/A,,Unknown,60,2012-11-18 09:50:00
3:52 AM,23.0,21.0,92,30.01,0.5,ENE,4.6,-,N/A,,Unknown,70,2012-11-18 09:52:00
4:00 AM,23.0,21.2,93,29.95,0.5,East,3.5,-,N/A,,Unknown,90,2012-11-18 10:00:00
4:19 AM,23.0,21.2,93,29.94,0.2,ENE,3.5,-,N/A,,Unknown,70,2012-11-18 10:19:00
4:28 AM,23.0,21.2,93,29.94,0.5,ENE,3.5,-,N/A,,Unknown,70,2012-11-18 10:28:00
4:52 AM,24.1,21.9,91,30.00,0.5,ENE,5.8,-,N/A,,Unknown,60,2012-11-18 10:52:00
5:05 AM,24.8,23.0,93,29.94,0.2,ENE,3.5,-,N/A,,Unknown,70,2012-11-18 11:05:00
5:52 AM,24.1,21.9,91,30.01,0.2,East,5.8,-,N/A,,Unknown,90,2012-11-18 11:52:00
6:13 AM,23.0,21.2,93,29.94,0.2,East,4.6,-,N/A,Fog,Light Freezing Fog,80,2012-11-18 12:13:00
6:47 AM,23.0,23.0,100,29.93,0.2,East,3.5,-,N/A,Fog,Light Freezing Fog,80,2012-11-18 12:47:00
6:52 AM,24.1,23.0,96,29.99,0.2,ENE,3.5,-,N/A,Fog,Light Freezing Fog,70,2012-11-18 12:52:00
7:12 AM,24.8,23.0,93,29.93,0.2,ENE,3.5,-,N/A,Fog,Light Freezing Fog,70,2012-11-18 13:12:00
7:20 AM,24.8,23.0,93,29.93,0.2,East,3.5,-,N/A,Fog,Light Freezing Fog,80,2012-11-18 13:20:00
7:52 AM,25.0,23.0,92,29.99,0.2,ENE,5.8,-,N/A,Fog,Light Freezing Fog,60,2012-11-18 13:52:00
8:02 AM,24.8,24.8,100,29.92,0.2,ENE,5.8,-,N/A,Fog,Light Freezing Fog,70,2012-11-18 14:02:00
8:43 AM,26.6,24.8,93,29.92,0.2,NE,5.8,-,N/A,Fog,Light Freezing Fog,50,2012-11-18 14:43:00
8:52 AM,26.1,25.0,96,29.99,0.2,ENE,6.9,-,N/A,Fog,Light Freezing Fog,70,2012-11-18 14:52:00
9:27 AM,26.6,26.6,100,29.90,0.2,ENE,5.8,-,N/A,Fog,Light Freezing Fog,70,2012-11-18 15:27:00
9:52 AM,27.0,26.1,96,29.96,0.2,ENE,4.6,-,N/A,Fog,Light Freezing Fog,70,2012-11-18 15:52:00
10:10 AM,26.6,26.6,100,29.90,0.2,ENE,5.8,-,N/A,Fog,Light Freezing Fog,70,2012-11-18 16:10:00
10:36 AM,28.4,26.6,93,29.90,0.2,NE,3.5,-,N/A,Fog,Light Freezing Fog,50,2012-11-18 16:36:00
10:52 AM,28.0,28.0,100,29.97,0.5,Calm,Calm,-,N/A,Fog,Light Freezing Fog,0,2012-11-18 16:52:00
10:59 AM,28.4,28.4,100,29.90,0.2,ENE,3.5,-,N/A,Fog,Light Freezing Fog,60,2012-11-18 16:59:00
11:52 AM,30.9,30.9,100,29.94,0.2,NE,3.5,-,N/A,Fog,Light Freezing Fog,50,2012-11-18 17:52:00
11:57 AM,30.2,30.2,100,29.87,3.0,NE,3.5,-,N/A,,Mostly Cloudy,40,2012-11-18 17:57:00
12:04 PM,32.0,32.0,100,29.86,4.0,ENE,4.6,-,N/A,,Scattered Clouds,70,2012-11-18 18:04:00
12:52 PM,37.0,35.1,93,29.90,7.0,ENE,3.5,-,N/A,,Clear,60,2012-11-18 18:52:00
1:52 PM,41.0,36.0,82,29.86,10.0,NE,6.9,-,N/A,,Clear,40,2012-11-18 19:52:00
2:52 PM,44.1,37.0,76,29.84,10.0,NE,4.6,-,N/A,,Clear,40,2012-11-18 20:52:00
3:52 PM,48.0,37.9,68,29.85,10.0,Calm,Calm,-,N/A,,Clear,0,2012-11-18 21:52:00
4:52 PM,41.0,36.0,82,29.86,10.0,Calm,Calm,-,N/A,,Clear,0,2012-11-18 22:52:00
5:52 PM,35.1,33.1,92,29.88,9.0,Calm,Calm,-,N/A,,Clear,0,2012-11-18 23:52:00
6:52 PM,33.1,32.0,96,29.89,7.0,Calm,Calm,-,N/A,,Clear,0,2012-11-19 00:52:00
7:52 PM,35.1,33.1,92,29.92,8.0,WNW,4.6,-,N/A,,Clear,300,2012-11-19 01:52:00
8:52 PM,30.9,30.0,96,29.92,6.0,Calm,Calm,-,N/A,,Clear,0,2012-11-19 02:52:00
9:52 PM,33.1,30.9,92,29.93,6.0,Calm,Calm,-,N/A,,Clear,0,2012-11-19 03:52:00
10:52 PM,33.1,32.0,96,29.95,5.0,West,5.8,-,N/A,,Clear,280,2012-11-19 04:52:00
11:52 PM,32.0,30.9,96,29.96,4.0,West,4.6,-,N/A,,Clear,280,2012-11-19 05:52:00